TimeEDT,TemperatureF,Dew PointF,Humidity,Sea Level PressureIn,VisibilityMPH,Wind Direction,Wind SpeedMPH,Gust SpeedMPH,PrecipitationIn,Events,Conditions,WindDirDegrees,DateUTC
12:18 AM,55.4,53.6,94,30.08,2.5,Calm,Calm,-,N/A,,Clear,0,2013-09-20 04:18:00
12:38 AM,57.2,53.6,88,30.08,0.8,Calm,Calm,-,N/A,,Clear,0,2013-09-20 04:38:00
12:56 AM,54.0,52.0,93,30.07,0.5,Calm,Calm,-,N/A,Fog,Fog,0,2013-09-20 04:56:00
1:08 AM,55.4,53.6,94,30.08,1.0,Calm,Calm,-,N/A,,Clear,0,2013-09-20 05:08:00
1:13 AM,55.4,53.6,94,30.08,0.5,Calm,Calm,-,N/A,Fog,Fog,0,2013-09-20 05:13:00
1:20 AM,55.4,53.6,94,30.08,0.2,Calm,Calm,-,N/A,Fog,Fog,0,2013-09-20 05:20:00
1:32 AM,57.2,55.4,94,30.08,1.0,Calm,Calm,-,N/A,,Mostly Cloudy,0,2013-09-20 05:32:00
1:43 AM,55.4,53.6,94,30.08,0.2,Calm,Calm,-,N/A,Fog,Fog,0,2013-09-20 05:43:00
1:56 AM,57.0,54.0,89,30.06,0.2,Calm,Calm,-,N/A,Fog,Fog,0,2013-09-20 05:56:00
2:01 AM,57.2,55.4,94,30.08,1.0,Calm,Calm,-,N/A,,Mostly Cloudy,0,2013-09-20 06:01:00
2:11 AM,57.2,55.4,94,30.07,2.5,Calm,Calm,-,N/A,,Mostly Cloudy,0,2013-09-20 06:11:00
2:19 AM,57.2,55.4,94,30.08,4.0,Calm,Calm,-,N/A,,Scattered Clouds,0,2013-09-20 06:19:00
2:45 AM,55.4,53.6,94,30.07,0.8,ENE,3.5,-,N/A,,Clear,70,2013-09-20 06:45:00
2:56 AM,55.9,54.0,93,30.05,0.5,Calm,Calm,-,N/A,Fog,Fog,0,2013-09-20 06:56:00
3:14 AM,55.4,53.6,94,30.07,0.2,Calm,Calm,-,N/A,Fog,Fog,0,2013-09-20 07:14:00
3:39 AM,55.4,53.6,94,30.07,0.2,East,4.6,-,N/A,Fog,Fog,100,2013-09-20 07:39:00
3:56 AM,54.0,52.0,93,30.06,0.2,East,5.8,-,N/A,Fog,Fog,100,2013-09-20 07:56:00
4:10 AM,55.4,53.6,94,30.07,1.0,ESE,3.5,-,N/A,,Mist,110,2013-09-20 08:10:00
4:13 AM,55.4,53.6,94,30.07,2.0,ESE,3.5,-,N/A,,Scattered Clouds,120,2013-09-20 08:13:00
4:31 AM,53.6,51.8,94,30.07,1.0,ESE,3.5,-,N/A,,Partly Cloudy,110,2013-09-20 08:31:00
4:43 AM,55.4,53.6,94,30.06,2.5,ESE,3.5,-,N/A,,Partly Cloudy,110,2013-09-20 08:43:00
4:56 AM,55.9,53.1,90,30.04,2.5,Calm,Calm,-,N/A,,Partly Cloudy,0,2013-09-20 08:56:00
5:08 AM,53.6,51.8,94,30.06,1.2,East,4.6,-,N/A,,Clear,100,2013-09-20 09:08:00
5:26 AM,55.4,53.6,94,30.06,3.0,ESE,5.8,-,N/A,,Clear,110,2013-09-20 09:26:00
5:38 AM,55.4,53.6,94,30.06,2.0,East,5.8,-,N/A,,Mostly Cloudy,100,2013-09-20 09:38:00
5:49 AM,57.2,55.4,94,30.06,4.0,Calm,Calm,-,N/A,,Mostly Cloudy,0,2013-09-20 09:49:00
5:56 AM,57.0,55.0,93,30.04,4.0,ESE,3.5,-,N/A,,Overcast,110,2013-09-20 09:56:00
6:45 AM,55.4,53.6,94,30.06,3.0,Calm,Calm,-,N/A,,Overcast,0,2013-09-20 10:45:00
6:52 AM,57.2,53.6,88,30.06,4.0,Calm,Calm,-,N/A,,Overcast,0,2013-09-20 10:52:00
6:56 AM,57.0,54.0,89,30.05,4.0,East,3.5,-,N/A,,Overcast,80,2013-09-20 10:56:00
7:21 AM,57.2,53.6,88,30.06,2.5,Calm,Calm,-,N/A,,Overcast,0,2013-09-20 11:21:00
7:40 AM,57.2,55.4,94,30.06,3.0,Calm,Calm,-,N/A,,Overcast,0,2013-09-20 11:40:00
7:56 AM,57.0,55.0,93,30.04,2.0,East,3.5,-,N/A,,Overcast,80,2013-09-20 11:56:00
8:21 AM,57.2,55.4,94,30.05,2.0,Calm,Calm,-,N/A,,Overcast,0,2013-09-20 12:21:00
8:54 AM,59.0,55.4,88,30.05,3.0,East,3.5,-,N/A,,Overcast,90,2013-09-20 12:54:00
8:55 AM,59.0,55.9,90,30.04,3.0,East,3.5,-,N/A,,Overcast,80,2013-09-20 12:55:00
9:11 AM,60.8,57.2,88,30.04,3.0,East,5.8,-,N/A,,Mostly Cloudy,100,2013-09-20 13:11:00
9:32 AM,62.6,57.2,82,30.04,6.0,SE,3.5,-,N/A,,Scattered Clouds,140,2013-09-20 13:32:00
9:56 AM,63.0,57.9,84,30.02,7.0,Variable,4.6,-,N/A,,Mostly Cloudy,0,2013-09-20 13:56:00
10:29 AM,64.4,59.0,83,30.05,8.0,Variable,4.6,-,N/A,,Overcast,0,2013-09-20 14:29:00
10:56 AM,68.0,61.0,78,30.01,7.0,South,5.8,-,N/A,,Scattered Clouds,180,2013-09-20 14:56:00
11:56 AM,72.0,62.1,71,30.01,7.0,SSE,5.8,-,N/A,,Scattered Clouds,150,2013-09-20 15:56:00
12:56 PM,75.0,61.0,62,30.00,10.0,SW,9.2,-,N/A,,Mostly Cloudy,230,2013-09-20 16:56:00
1:11 PM,75.2,60.8,61,30.02,10.0,SW,9.2,-,N/A,,Overcast,220,2013-09-20 17:11:00
1:56 PM,75.0,61.0,62,29.98,10.0,WSW,8.1,-,N/A,,Overcast,240,2013-09-20 17:56:00
2:13 PM,77.0,62.6,61,29.99,10.0,Variable,4.6,-,N/A,,Mostly Cloudy,0,2013-09-20 18:13:00
2:56 PM,77.0,62.1,60,29.95,10.0,SSW,4.6,-,N/A,,Mostly Cloudy,200,2013-09-20 18:56:00
3:56 PM,75.9,62.1,62,29.94,10.0,South,5.8,-,N/A,,Overcast,180,2013-09-20 19:56:00
4:56 PM,75.9,63.0,64,29.92,9.0,South,4.6,-,N/A,,Overcast,190,2013-09-20 20:56:00
5:56 PM,75.0,62.1,64,29.89,8.0,SSE,5.8,-,N/A,,Clear,150,2013-09-20 21:56:00
6:56 PM,73.0,62.1,68,29.89,10.0,SSE,3.5,-,N/A,,Clear,160,2013-09-20 22:56:00
7:56 PM,70.0,62.1,76,29.90,10.0,SSE,3.5,-,N/A,,Clear,160,2013-09-20 23:56:00
8:56 PM,69.1,62.1,78,29.91,10.0,SSE,5.8,-,N/A,,Scattered Clouds,160,2013-09-21 00:56:00
9:56 PM,70.0,61.0,73,29.89,10.0,SSE,4.6,-,N/A,,Clear,160,2013-09-21 01:56:00
10:56 PM,66.9,61.0,81,29.89,10.0,SSE,5.8,-,N/A,,Clear,150,2013-09-21 02:56:00
11:56 PM,66.0,60.1,81,29.86,10.0,SE,6.9,-,N/A,,Clear,140,2013-09-21 03:56:00